STARLINK-1350, 45535

Orbit data source: Space-Track

STARLINK-1350, 45535 is a payload satellite owned by SpaceX/Seattle (US) in LEO that was launched on Wed, 22 Apr 2020 UTC via an FALCON 9 launch vehicle from the Air Force Eastern Test Range (AFETR). Payload-class satellites include a variety of spacecraft equipped with specific instruments for various scientific and technological missions. These include communications satellites like Starlink; space stations such as the ISS; scientific satellites like the Hubble; Earth observation satellites from companies like Planet Labs, Umbra, and HawkEye 360; GPS; miniature CubeSats for education and research; and military/defense satellites.

Loading next visibility...
Identifier
45535, 2020-025E
Orbit
LEO
Country
Flag of USUS
Related business
Manufacturer
SpaceX/Seattle
Mission
Partially operational Commercial Communications
Bus & Motor
STARLINK, Unknown motor
Mass
260 kg wet, ~248 kg dry
Launch date (UTC)
2020-04-22 (6 years ago)
Launch vehicle
FALCON 9
Launch site
Air Force Eastern Test Range (AFETR)
Object type
Payload
Rocket body
Debris
Shape & HBR
Box + 1 Pan, 10.1 m
Radar Cross Section
13.562 m², Large (>1 m²)

Expand to show TLE details & history
Last TLE update: 23 hours ago

TLE from 23 hours ago
0 STARLINK-1350
1 45535U 20025E   26170.01211591  .00007834  00000-0  21341-3 0  9993
2 45535  53.0730 276.4014 0001253  73.8993 286.2148 15.38465135341747
Epoch: 2026-06-19T00:17Z
TLE epoch observation values (Epoch: 2026-06-19T00:17:26.814Z)
Latitude
-0.00004°
Longitude
4.79244°
Altitude
451.302 km
Speed
7.643 km/s
True Right ascension
18h 25m 36s
True Declination
0° 00' 00"
Sunlit
Object was in full shadow at epoch
Visualization orbit readout
Latitude
Unknown
Longitude
Unknown
Altitude
Unknown
Speed
Unknown
Apparent Right ascension
Unknown
Apparent Declination
Unknown
Sunlit
N/A
Visualization observer readout
Local Sidereal Time
10:00:31
Azimuth
Unknown
Elevation
Unknown
Doppler factor
Unknown
Orbital elements
Apogee altitude
451.775 km
Perigee altitude
450.063 km
Semi-major axis
6,829.056 km
Eccentricity
0.00013
Inclination
53.073°
RAAN
276.4014°
Arg. of periapsis
73.8993°
True anomaly
286.20101°
Mean anomaly
286.2148°
Eccentric anomaly
286.20791°
Mean motion
3.84594 °/min
Orbital period
93.61 mins
BSTAR
0.00021341
Loading maneuver chart data...
Computing Atmospheric mass density...

Documentation

Showing up to 5 results
|